COSMOS 2535 DEB, 44641

Orbit data source: Space-Track

COSMOS 2535 DEB, 44641 is space debris in SSO originally from a launch on Wed, 10 Jul 2019 UTC launched from the Plesetsk Missile And Space Complex (PKMTR). Debris objects in space refer to the collection of defunct objects orbiting the Earth. Examples of debris include non-operational satellites, rocket bodies, and fragments generated from explosions, collisions, or faulty payload assembly.

Loading next visibility...
Identifier
44641, 2019-039M
Orbit
SSO
Country
Flag of CISCIS
Related business
Manufacturer
Unknown
Mission
Spacecraft
Bus & Motor
Unknown
Mass
Unknown
Launch date (UTC)
2019-07-10 (6 years ago)
Launch vehicle
Unknown
Launch site
Plesetsk Missile And Space Complex (PKMTR)
Object type
Payload
Rocket body
Debris
Shape & HBR
Unknown shape, 0.1 m
Radar Cross Section
Small (<0.1 m²)

Expand to show TLE details & history
Last TLE update: 1 day ago

TLE from 1 day ago
0 COSMOS 2535 DEB
1 44641U 19039M   25286.13244774  .00026633  00000-0  11834-2 0  9995
2 44641  97.5863 351.5837 0019967 117.8931 242.4330 15.21322367329423
Epoch: 2025-10-13T03:10Z
TLE epoch observation values (Epoch: 2025-10-13T03:10:43.484Z)
Latitude
-0°
Longitude
-78.0371°
Altitude
511.318 km
Speed
7.605 km/s
True Right ascension
23h 26m 20s
True Declination
0° 00' 00"
Sunlit
Object was in full shadow at epoch
Visualization orbit readout
Latitude
Unknown
Longitude
Unknown
Altitude
Unknown
Speed
Unknown
Apparent Right ascension
Unknown
Apparent Declination
Unknown
Sunlit
N/A
Visualization observer readout
Local Sidereal Time
07:48:18
Azimuth
Unknown
Elevation
Unknown
Doppler factor
Unknown
Orbital elements
Apogee altitude
512.554 km
Perigee altitude
485.092 km
Semi-major axis
6,876.96 km
Eccentricity
0.002
Inclination
97.5863°
RAAN
351.5837°
Arg. of periapsis
117.8931°
True anomaly
242.23041°
Mean anomaly
242.433°
Eccentric anomaly
242.33168°
Mean motion
3.80582 °/min
Orbital period
94.59 mins
BSTAR
0.0011834
Loading maneuver chart data...
Computing Atmospheric mass density...
Loading historical data...
Loading historical data...
Loading historical data...
Loading historical data...
Loading historical data...
Loading historical data...
Loading historical data...

Documentation

Showing up to 5 results
|